Change the Weather History Date:

Monday, July 8, 2013

  Actual Average Record
Temperature  
Mean Temperature 75 °F 70 °F  
Max Temperature 88 °F 84 °F 106 °F (1936)
Min Temperature 61 °F 57 °F 42 °F (1971)
Degree Days  
Heating Degree Days 0 1  
Month to date heating degree days 0 8  
Since 1 June heating degree days 86 101  
Since 1 July heating degree days 0 8  
Cooling Degree Days 10 6  
Month to date cooling degree days 55 43  
Year to date cooling degree days 151 143  
Since 1 June cooling degree days 139 126  
Growing Degree Days 24 (Base 50)    
Moisture  
Dew Point 62 °F    
Average Humidity 72    
Maximum Humidity 97    
Minimum Humidity 46    
Precipitation  
Precipitation T in 0.10 in 0.83 in (1882)
Month to date precipitation 0.20 0.79  
Year to date precipitation 13.51 9.43  
Snow  
Snow 0.00 in 0.00 in 0.00 in (2002)
Month to date snowfall 0.0 0.0  
Since 1 June snowfall 0.0 0.0  
Since 1 July snowfall 0.0 0.0  
Snow Depth 0.00 in    
Sea Level Pressure  
Sea Level Pressure 29.93 in    
Wind  
Wind Speed 10 mph (South)    
Max Wind Speed 33 mph    
Max Gust Speed 41 mph    
Visibility 10 miles    
Events Rain , Thunderstorm    
T = Trace of Precipitation, MM = Missing Value Source: NWS Daily Summary

Daily Weather History Graph

Daily Weather History Graph

Search for Another Location

Airport or City:

Trip Planner

Search our weather history database for the weather conditions in past years. The results will help you decide how hot, cold, wet, or windy it might be!

Date:

Astronomy

Jul. 08, 2013 Rise Set
Actual Time 5:58 AM CDT 9:37 PM CDT
Civil Twilight 5:19 AM CDT 10:16 PM CDT
Nautical Twilight 4:27 AM CDT 11:08 PM CDT
Astronomical Twilight 3:15 AM CDT 12:18 AM CDT
Moon 6:35 AM CDT (7/8) 9:33 PM CDT (7/8)
Length of Visible Light 16h 57m
Length of Day
15h 39m
New Moon, 0% of the Moon is Illuminated
Jul 8
New Moon
Jul 15
First Quarter
Jul 22
Full
Jul 29
Last Quarter
Aug 6
New

Hourly Weather History & Observations

Time (CDT) Temp. Heat Index Dew Point Humidity Pressure Visibility Wind Dir Wind Speed Gust Speed Precip Events Conditions
12:52 AM 64.0 °F - 59.0 °F 84% 29.99 in 10.0 mi Calm Calm - N/A   Scattered Clouds
1:52 AM 62.1 °F - 59.0 °F 90% 29.99 in 10.0 mi ENE 4.6 mph - N/A   Clear
2:52 AM 62.1 °F - 59.0 °F 90% 29.98 in 10.0 mi East 3.5 mph - N/A   Mostly Cloudy
3:52 AM 64.0 °F - 60.1 °F 87% 29.97 in 10.0 mi NNE 5.8 mph - N/A   Mostly Cloudy
4:52 AM 62.1 °F - 59.0 °F 90% 29.96 in 10.0 mi ENE 4.6 mph - N/A   Mostly Cloudy
5:52 AM 62.1 °F - 59.0 °F 90% 29.97 in 10.0 mi Calm Calm - N/A   Mostly Cloudy
6:52 AM 61.0 °F - 59.0 °F 93% 29.96 in 10.0 mi SE 5.8 mph - N/A   Clear
7:52 AM 68.0 °F - 62.1 °F 81% 29.96 in 10.0 mi South 5.8 mph - N/A   Clear
8:52 AM 73.0 °F - 60.1 °F 64% 29.96 in 10.0 mi SSE 11.5 mph - N/A   Clear
9:52 AM 75.9 °F - 59.0 °F 56% 29.96 in 10.0 mi South 9.2 mph - N/A   Clear
10:52 AM 79.0 °F - 59.0 °F 50% 29.94 in 10.0 mi South 9.2 mph - N/A   Clear
11:52 AM 80.1 °F 81.7 °F 64.0 °F 58% 29.94 in 10.0 mi SSE 12.7 mph - N/A   Clear
12:52 PM 82.0 °F 83.8 °F 64.9 °F 56% 29.93 in 10.0 mi South 16.1 mph - N/A   Clear
1:52 PM 84.0 °F 86.3 °F 66.0 °F 55% 29.93 in 10.0 mi SSW 12.7 mph 23.0 mph N/A   Clear
2:52 PM 84.9 °F 87.1 °F 66.0 °F 53% 29.92 in 10.0 mi SSW 12.7 mph - N/A   Clear
3:52 PM 87.1 °F 88.9 °F 64.9 °F 48% 29.90 in 10.0 mi SW 11.5 mph - N/A   Partly Cloudy
4:52 PM 86.0 °F 87.6 °F 64.9 °F 49% 29.89 in 10.0 mi South 11.5 mph - N/A   Clear
5:52 PM 87.1 °F 88.9 °F 64.9 °F 48% 29.88 in 10.0 mi SSW 12.7 mph - N/A   Clear
6:52 PM 86.0 °F 87.6 °F 64.9 °F 49% 29.86 in 10.0 mi SSW 12.7 mph - N/A   Clear
7:52 PM 84.9 °F 86.1 °F 64.0 °F 49% 29.84 in 10.0 mi South 9.2 mph - N/A   Clear
8:52 PM 78.1 °F - 68.0 °F 71% 29.84 in 10.0 mi SE 4.6 mph - N/A   Clear
9:52 PM 73.9 °F - 68.0 °F 82% 29.86 in 10.0 mi SSE 5.8 mph - N/A   Clear
10:52 PM 68.0 °F - 57.0 °F 68% 29.96 in 10.0 mi NW 21.9 mph 36.8 mph 0.00 in   Mostly Cloudy
11:01 PM 66.9 °F - 57.9 °F 73% 29.98 in 10.0 mi NNW 23.0 mph 33.4 mph 0.00 in Rain , Thunderstorm Light Rain
11:19 PM 64.9 °F - 60.1 °F 84% 29.95 in 10.0 mi NNW 17.3 mph 34.5 mph 0.00 in Rain , Thunderstorm Light Thunderstorms and Rain
11:34 PM 66.0 °F - 60.1 °F 81% 29.97 in 10.0 mi NW 12.7 mph 25.3 mph 0.00 in   Partly Cloudy
11:52 PM 64.9 °F - 59.0 °F 81% 29.95 in 10.0 mi NNW 18.4 mph 25.3 mph 0.00 in   Partly Cloudy